Weather History for Green Bay, WI

Change the Weather History Date:

Sunday, June 8, 2014

  Actual Average Record
Temperature  
Mean Temperature 63 °F 63 °F  
Max Temperature 72 °F 73 °F 93 °F (2011)
Min Temperature 53 °F 52 °F 36 °F (1998)
Degree Days  
Heating Degree Days 2 4  
Month to date heating degree days 3 40  
Since 1 June heating degree days 3 40  
Since 1 July heating degree days 8743 7903  
Cooling Degree Days 0 2  
Month to date cooling degree days 30 11  
Year to date cooling degree days 46 29  
Since 1 June cooling degree days 30 11  
Growing Degree Days 13 (Base 50)    
Moisture  
Dew Point 49 °F    
Average Humidity 66    
Maximum Humidity 93    
Minimum Humidity 38    
Precipitation  
Precipitation T in 0.14 in 1.73 in (1993)
Month to date precipitation 1.42 1.04  
Year to date precipitation 12.08 10.69  
Snow  
Snow 0.00 in 0.00 in 0.00 in ()
Month to date snowfall 0.0 0.0  
Since 1 June snowfall 0.0 0.0  
Since 1 July snowfall 72.1 51.4  
Snow Depth 0.00 in    
Sea Level Pressure  
Sea Level Pressure 30.03 in    
Wind  
Wind Speed 9 mph (NNE)    
Max Wind Speed 18 mph    
Max Gust Speed 24 mph    
Visibility 10 miles    
Events Rain    
T = Trace of Precipitation, MM = Missing Value Source: NWS Daily Summary

Daily Weather History Graph

Daily Weather History Graph

Search for Another Location

Airport:

Trip Planner

Search our weather history database for the weather conditions in past years. The results will help you decide how hot, cold, wet, or windy it might be!

Date:

Astronomy

Jun. 08, 2014 Rise Set
Actual Time 5:08 AM CDT 8:35 PM CDT
Civil Twilight 4:31 AM CDT 9:11 PM CDT
Nautical Twilight 3:44 AM CDT 9:59 PM CDT
Astronomical Twilight 2:43 AM CDT 11:00 PM CDT
Moon 3:43 PM CDT (6/8) 2:12 AM CDT (6/8)
Length of Visible Light 16h 40m
Length of Day
15h 27m
Waxing Gibbous, 77% of the Moon is Illuminated
Jun 8
Waxing Gibbous
Jun 12
Full
Jun 19
Last Quarter
Jun 27
New
Jul 5
First Quarter

Hourly Weather History & Observations

Time (CDT) Temp. Dew Point Humidity Pressure Visibility Wind Dir Wind Speed Gust Speed Precip Events Conditions
12:53 AM 55.9 °F 54.0 °F 93% 29.98 in 10.0 mi NNE 19.6 mph 24.2 mph 0.00 in Rain Light Rain
1:03 AM 55.9 °F 55.0 °F 97% 29.98 in 10.0 mi NNE 16.1 mph - 0.00 in Rain Light Rain
1:53 AM 55.0 °F 53.1 °F 93% 29.97 in 10.0 mi NNE 13.8 mph - 0.00 in   Overcast
2:05 AM 55.0 °F 52.0 °F 89% 29.97 in 10.0 mi NNE 13.8 mph - N/A   Overcast
2:53 AM 55.0 °F 52.0 °F 89% 29.98 in 10.0 mi NNE 10.4 mph - N/A   Overcast
3:12 AM 55.4 °F 53.6 °F 94% 29.98 in 10.0 mi North 9.2 mph - N/A   Overcast
3:53 AM 55.0 °F 53.1 °F 93% 29.99 in 10.0 mi North 11.5 mph - N/A   Overcast
4:17 AM 55.0 °F 53.1 °F 93% 30.00 in 10.0 mi North 9.2 mph - N/A   Overcast
4:53 AM 55.0 °F 53.1 °F 93% 30.00 in 10.0 mi North 11.5 mph - N/A   Overcast
5:53 AM 55.0 °F 53.1 °F 93% 30.02 in 10.0 mi North 6.9 mph - N/A   Overcast
6:53 AM 55.9 °F 53.1 °F 90% 30.03 in 10.0 mi North 10.4 mph - N/A   Mostly Cloudy
7:53 AM 59.0 °F 51.1 °F 75% 30.05 in 10.0 mi NNE 12.7 mph - N/A   Clear
8:53 AM 63.0 °F 51.1 °F 65% 30.06 in 10.0 mi North 12.7 mph - N/A   Clear
9:53 AM 64.0 °F 48.9 °F 58% 30.06 in 10.0 mi NNE 10.4 mph - N/A   Clear
10:53 AM 66.9 °F 51.1 °F 57% 30.07 in 10.0 mi North 11.5 mph - N/A   Clear
11:53 AM 70.0 °F 46.0 °F 42% 30.08 in 10.0 mi North 8.1 mph 17.3 mph N/A   Clear
12:53 PM 70.0 °F 45.0 °F 41% 30.06 in 10.0 mi NE 18.4 mph 21.9 mph N/A   Clear
1:53 PM 70.0 °F 46.0 °F 42% 30.07 in 10.0 mi ENE 10.4 mph 20.7 mph N/A   Clear
2:53 PM 71.6 °F 46.4 °F 41% 30.05 in 10.0 mi Variable 6.9 mph - N/A   Clear
3:53 PM 72.0 °F 46.9 °F 41% 30.05 in 10.0 mi NE 12.7 mph - N/A   Clear
4:53 PM 72.0 °F 46.0 °F 40% 30.04 in 10.0 mi ENE 9.2 mph - N/A   Clear
5:53 PM 71.1 °F 45.0 °F 39% 30.04 in 10.0 mi ENE 8.1 mph - N/A   Clear
6:53 PM 70.0 °F 46.9 °F 44% 30.05 in 10.0 mi NE 5.8 mph - N/A   Clear
7:53 PM 66.0 °F 45.0 °F 47% 30.05 in 10.0 mi ESE 11.5 mph - N/A   Clear
8:53 PM 62.1 °F 43.0 °F 50% 30.07 in 10.0 mi East 5.8 mph - N/A   Clear
9:53 PM 60.1 °F 41.0 °F 49% 30.08 in 10.0 mi East 5.8 mph - N/A   Clear
10:53 PM 57.9 °F 43.0 °F 58% 30.08 in 10.0 mi Calm Calm - N/A   Clear
11:53 PM 53.1 °F 48.0 °F 83% 30.09 in 10.0 mi NNW 3.5 mph - N/A   Clear